Location: Franzen
(48.6167°N, 15.3833°E)
Time: 07:23:53
(UTC+00:00)

Transit 2A - Pass Details

Date: 09 August 2021
Orbit: 594 x 964 km, 66.7° (Epoch: 24 September)

Event Time Altitude Azimuth Distance (km) Brightness Sun altitude
Rises 09:21:23 0° 326° (NW) 3,154 8.8 51.0°
Reaches altitude 10° 09:24:27 10° 346° (NNW) 2,304 8.2 51.3°
Maximum altitude 09:28:01 18° 28° (NNE) 1,896 8.1 51.7°
Drops below altitude 10° 09:31:47 10° 70° (ENE) 2,469 8.9 52.1°
Sets 09:35:14 0° 89° (E) 3,476 9.7 52.4°
